Weather Roundup
Issued by NWS

Home | Current Version | Previous Version | Text Only | Print | Product List | Glossary On
Versions: 1 2 3 4 5 6 7 8 9 10 11 12 13 14 15 16 17 18 19 20 21 22 23 24 25 26 27 28 29 30 31 32 33 34 35 36 37 38 39 40 41 42 43 44 45 46 47 48 49 50
000
NZUS93 KARX 190159
HRRWXR

CURRENT HOURLY OBSERVATIONS ACROSS
MUCH OF THE UPPER MISSISSIPPI VALLEY
NATIONAL WEATHER SERVICE LA CROSSE WI
900 PM CDT THU SEP 18 2014


...SOUTHEAST MINNESOTA...


CITY           SKY/WX    TMP DP  RH WIND       PRES   REMARKS
ROCHESTER      CLEAR     58  54  86 SE7       30.07R
ROCHESTER/MAYO FAIR      62  53  73 SE8       30.06R
WINONA         CLEAR     59  55  88 SE5       30.08R
AUSTIN         CLEAR     61  52  72 SE5       30.05R
ALBERT LEA     CLEAR     63  54  72 S6        30.03S
DODGE CENTER   CLEAR     55  52  88 S6        30.05R
PRESTON        CLEAR     60  57  91 SE8       30.08R
OWATONNA       CLEAR     61  52  72 SE5       30.04R
FARIBAULT      CLEAR     64  50  59 SE5       30.03R
$$

...ELSEWHERE IN MINNESOTA...


CITY           SKY/WX    TMP DP  RH WIND       PRES   REMARKS
MINNEAPOLIS    MOCLDY    63  57  81 SE10      30.00S
INTNL FALLS    MOCLDY    54  48  80 S8G18     29.89S
DULUTH         CLOUDY    46  43  89 E14       30.03F
RED WING       PTCLDY    63  55  77 SE8       30.03R
REDWOOD FALLS  PTCLDY    62  52  69 S9        29.95R
MANKATO        PTCLDY    63  50  63 SE12      30.00R
WORTHINGTON    MOCLDY    61  52  72 S9        29.98S
FAIRMONT       CLEAR     57  43  58 S8        30.00S
$$

...SOUTHWEST WISCONSIN...


CITY           SKY/WX    TMP DP  RH WIND       PRES   REMARKS
LA CROSSE      CLEAR     61  55  81 E7        30.08R
PRAIRIE DU CHI CLEAR     60  53  78 E6        30.08R
BOSCOBEL       CLEAR     57  54  89 NE3       30.11R
LONE ROCK      NOT AVBL
PLATTEVILLE    CLEAR     57  52  84 CALM      30.11R
FORT MC COY    CLEAR     54  52  94 E3        30.11R
VIROQUA        FAIR      56  56 100 SE8       30.10R
WIS DELLS      CLEAR     53  50  90 CALM      30.13R
$$

...ELSEWHERE IN WISCONSIN...


CITY           SKY/WX    TMP DP  RH WIND       PRES   REMARKS
MILWAUKEE      CLOUDY    56  51  84 NE3       30.18R
MADISON        PTCLDY    58  53  84 SE7       30.14R
GREEN BAY      CLEAR     49  47  93 SE3       30.17R
EAU CLAIRE     NOT AVBL
BLACK RVR FLS  FAIR      51  51 100 CALM      30.10R
MEDFORD        CLEAR     48  46  95 SE3       30.12R
WAUSAU         CLEAR     50  47  89 E5        30.12R
WIS RAPIDS     CLEAR     51  49  92 SE6       30.15R
MARSHFIELD     CLEAR     50  48  93 E3        30.13R
RICE LAKE      CLEAR     55  51  87 E6        30.08R
$$

...NORTHEAST IOWA...


CITY           SKY/WX    TMP DP  RH WIND       PRES   REMARKS
WATERLOO       CLEAR     62  53  72 SE7       30.06R
DUBUQUE        CLEAR     59  52  77 E8        30.11R
DECORAH        PTCLDY    59  54  82 SE6       30.07R
MASON CITY     CLEAR     59  53  80 SE8       30.05R
CHARLES CITY   CLEAR     61  54  77 SE7       30.06R
OELWEIN        PTCLDY    59  54  82 SE7       30.08R
$$

...ELSEWHERE IN IOWA...


CITY           SKY/WX    TMP DP  RH WIND       PRES   REMARKS
DES MOINES     CLEAR     64  54  69 SE8       30.04R
IOWA CITY      CLEAR     62  53  72 SE7       30.08R
FORT DODGE     CLEAR     63  50  63 SE6       30.03F
MARSHALLTOWN   CLEAR     56  52  86 SE5       30.05R
CEDAR RAPIDS   CLEAR     58  54  86 E8        30.06R
$$

...NORTHERN ILLINOIS...


CITY           SKY/WX    TMP DP  RH WIND       PRES   REMARKS
CHICAGO-OHARE  PTCLDY    59  53  80 N6        30.15R
DUPAGE         CLEAR     56  52  86 NE6       30.14R
CHICAGO-MIDWAY PTCLDY    61  56  83 N7        30.15R
MOLINE         CLEAR     59  51  75 E8        30.08R
ROCKFORD       PTCLDY    59  53  80 E12       30.15R
STERLING       CLEAR     55  50  82 SE6       30.11R
PEORIA         CLEAR     60  50  69 NE5       30.10R
$$

NOTE: "FAIR" INDICATES FEW OR NO CLOUDS BELOW 12,000 FEET WITH NO
SIGNIFICANT WEATHER AND/OR OBSTRUCTIONS TO VISIBILITY. WIND
SPEEDS ARE IN MILES-PER-HOUR.



USA.gov is the U.S. government's official web portal to all federal, state and local government web resources and services.